SCP
0 0 0 0 0 0 0 0 0 0 0 0 0 0 0 0 0 0 0 0 0 0 0 0 0 0 0 0 0 0 0 0 0 0 0 0 0 0 0 0 0 0 0 0 0 0 0 0 0
0 0 0 0 0 0 0 0 0 0 0 0 0 0 0 0 0 0 0 0 0 0 0 0 0 0 0 0 0 0 0 0 0 0 0 0 0 0 0 0 0 0 0 0 0 0 0 0 0
0 0 0 0 0 0 0 0 0 0 0 0 0 0 0 0 0 0 0 0 0 0 0 0 0 0 0 0 0 0 0 0 0 0 0 0 0 0 0 0 0 0 0 0 0 0 0 0 0
0 0 0 0 0 0 0 0 0 0 0 0 0 0 0 0 0 0 0 0 0 0 0 0 0 0 0 0 0 0 0 0 0 0 0 0 0 0 0 0 0 0 0 0 0 0 0 0 0
0 0 0 0 0 0 0 0 0 0 0 0 0 0 0 0 0 0 0 0 0 0 0 0 0 0 0 0 0 0 0 0 0 0 0 0 0 0 0 0 0 0 0 0 0 0 0 0 0
0 0 0 0 0 0 0 0 0 0 0 0 0 0 0 0 0 0 0 0 0 0 0 0 0 0 0 0 0 0 0 0 0 0 0 0 0 0 0 0 0 0 0 0 0 0 0 0 0
0 0 0 0 0 0 0 0 0 0 0 0 0 0 0 0 0 0 0 0 0 0 0 0 0 0 0 0 0 0 0 0 0 0 0 0 0 0 0 0 0 0 0 0 0 0 0 0 0
0 0 0 0 0 0 0 0 0 0 0 0 0 0 0 0 0 0 0 0 0 0 0 0 0 0 0 0 0 0 0 0 0 0 0 0 0 0 0 0 0 0 0 0 0 0 0 0 0
0 0 0 0 0 0 0 0 0 0 0 0 0 0 0 0 0 0 0 0 0 0 0 0 0 0 0 0 0 0 0 0 0 0 0 0 0 0 0 0 0 0 0 0 0 0 0 0 0
0 0 0 0 0 0 0 0 0 0 0 0 0 0 0 0 0 0 0 0 0 0 0 0 0 0 0 0 0 0 0 0 0 0 0 0 0 0 0 0 0 0 0 0 0 0 0 0 0
0 0 0 0 0 0 0 0 0 0 0 0 0 0 0 0 0 0 0 0 0 0 0 0 0 0 0 0 0 0 0 0 0 0 0 0 0 0 0 0 0 0 0 0 0 0 0 0 0
0 0 0 0 0 0 0 0 0 0 0 0 0 0 0 0 0 0 0 0 0 0 0 0 0 0 0 0 0 0 0 0 0 0 0 0 0 0 0 0 0 0 0 0 0 0 0 0 0
0 0 0 0 0 0 0 0 0 0 0 0 0 0 0 0 0 0 0 0 0 0 0 0 0 0 0 0 0 0 0 0 0 0 0 0 0 0 0 0 0 0 0 0 0 0 0 0 0
0 0 0 0 0 0 0 0 0 0 0 0 0 0 0 0 0 0 0 0 0 0 0 0 0 0 0 0 0 0 0 0 0 0 0 0 0 0 0 0 0 0 0 0 0 0 0 0 0
0 0 0 0 0 0 0 0 0 0 0 0 0 0 0 0 0 0 0 0 0 0 0 0 0 0 0 0 0 0 0 0 0 0 0 0 0 0 0 0 0 0 0 0 0 0 0 0 0
0 0 0 0 0 0 0 0 0 0 0 0 0 0 0 0 0 0 0 0 0 0 0 0 0 0 0 0 0 0 0 0 0 0 0 0 0 0 0 0 0 0 0 0 0 0 0 0 0
0 0 0 0 0 0 0 0 0 0 0 0 0 0 0 0 0 0 0 0 0 0 0 0 0 0 0 0 0 0 0 0 0 0 0 0 0 0 0 0 0 0 0 0 0 0 0 0 0
0 0 0 0 0 0 0 0 0 0 0 0 0 0 0 0 0 0 0 0 0 0 0 0 0 0 0 0 0 0 0 0 0 0 0 0 0 0 0 0 0 0 0 0 0 0 0 0 0
0 0 0 0 0 0 0 0 0 0 0 0 0 0 0 0 0 0 0 0 0 0 0 0 0 0 0 0 0 0 0 0 0 0 0 0 0 0 0 0 0 0 0 0 0 0 0 0 0
0 0 0 0 0 0 0 0 0 0 0 0 0 0 0 0 0 0 0 0 0 0 0 0 0 0 0 0 0 0 0 0 0 0 0 0 0 0 0 0 0 0 0 0 0 0 0 0 0
0 0 0 0 0 0 0 0 0 0 0 0 0 0 0 0 0 0 0 0 0 0 0 0 0 0 0 0 0 0 0 0 0 0 0 0 0 0 0 0 0 0 0 0 0 0 0 0 0
0 0 0 0 0 0 0 0 0 -0 -0 0 0 0 0 0 0 0 0 0 0 0 0 0 0 0 0 0 0 0 0 0 0 0 0 0 0 0 0 0 0 0 0 0 0 0 0 0 0
0 0 0 0 0 0 0 0 -0 -0 0 -0 0 0 0 0 0 0 0 0 0 0 0 0 0 0 0 0 0 0 0 0 0 0 0 0 0 0 0 0 0 0 0 0 0 0 0 0 0
0 0 0 0 0 0 0 0 -0 0 0 0 0 0 0 0 0 0 0 0 0 0 0 0 0 0 0 0 0 0 0 0 0 0 0 0 0 0 0 0 0 0 0 0 0 0 0 0 0
0 0 0 0 0 0 0 0 0 0 0 0 0 0 0 0 0 0 0 0 0 0 0 0 0 0 0 0 0 0 0 0 0 0 0 0 0 0 0 0 0 0 0 0 0 0 0 0 0
0 0 0 0 0 0 0 0 0 0 0 0 0 0 0 0 0 0 0 0 0 0 0 0 0 0 0 0 0 0 0 0 0 0 0 0 0 0 0 0 0 0 0 0 0 0 0 0 0
0 0 0 0 0 0 0 0 0 0 0 0 0 0 0 0 0 0 0 0 0 0 0 0 0 0 0 0 0 0 0 0 0 0 0 0 0 0 0 0 0 0 0 0 0 0 0 0 0
0 0 0 0 0 0 0 0 0 0 0 0 0 0 0 0 0 0 0 0 0 0 0 0 0 0 0 0 0 0 0 0 0 0 0 0 0 0 0 0 0 0 0 0 0 0 0 0 0
0 0 0 0 0 0 0 0 0 0 0 0 0 0 0 0 0 0 0 0 0 0 0 0 0 0 0 0 0 0 0 0 0 0 0 0 0 0 0 0 0 0 0 0 0 0 0 0 0
0 0 0 0 0 0 0 0 0 0 0 0 0 0 0 0 0 0 0 0 0 0 0 0 0 0 0 0 0 0 0 0 0 0 0 0 0 0 0 0 0 0 0 0 0 0 0 0 0
Wind_Speed_500mb
21 17 16 13 3 2 8 12 4 5 5 7 11 7 9 6 9 7 5 20 35 51 52 48 45 41 39 36 35 33 30 25 21 17 17 20 19 16 15 15 19 21 23 24 24 21 19 18 16
19 19 17 7 6 6 11 7 11 17 8 9 11 9 5 11 19 12 10 22 37 53 55 53 50 48 45 42 40 35 32 27 24 21 20 22 25 24 20 19 23 30 30 31 29 26 24 22 18
19 23 11 7 7 21 9 10 21 10 15 15 9 12 8 9 16 10 14 23 40 53 58 52 50 49 47 41 42 36 33 29 27 25 24 28 31 30 28 28 28 30 31 29 27 26 23 18 18
17 15 7 5 21 12 11 6 9 3 6 17 11 8 12 19 8 12 15 22 36 51 54 52 52 49 48 45 40 40 36 33 29 25 25 26 28 34 34 30 27 25 24 24 23 24 19 17 17
25 8 7 8 22 8 8 20 16 7 6 10 17 8 11 15 20 12 13 20 31 46 51 52 51 53 52 47 47 42 40 36 31 27 25 26 26 26 27 25 24 22 22 21 21 20 17 20 18
16 7 6 22 25 8 10 37 20 11 17 10 14 8 11 12 21 19 21 27 33 40 47 51 52 53 55 54 55 50 45 38 34 31 28 27 26 25 24 23 20 19 17 21 18 20 20 15 8
11 6 15 7 8 8 14 32 17 22 19 22 15 11 11 20 26 26 25 28 30 37 40 42 47 55 53 56 56 57 55 44 38 33 30 27 26 25 23 20 17 16 21 19 20 22 11 5 9
17 6 9 11 22 24 11 14 13 39 28 20 25 11 10 19 30 31 31 29 32 38 41 44 45 47 50 52 54 59 60 52 42 36 31 27 27 25 24 22 21 21 21 18 21 12 10 10 20
24 9 19 25 20 13 5 7 13 12 19 22 21 22 16 14 28 37 36 34 38 42 43 43 42 42 44 47 49 51 55 45 43 37 32 27 25 24 24 25 25 25 17 17 19 15 10 24 24
14 17 24 12 17 11 10 20 13 9 16 16 24 36 39 33 30 40 38 38 41 44 47 46 42 43 42 42 46 47 44 40 39 37 34 30 27 27 25 26 24 21 24 21 15 8 22 28 30
14 33 14 13 32 40 15 12 16 15 13 22 36 45 44 42 40 45 42 42 42 43 45 46 43 43 42 42 44 43 41 41 41 41 41 28 22 26 27 29 28 28 24 16 6 18 23 31 34
13 20 24 23 38 18 10 10 13 34 40 39 29 36 37 50 50 48 48 47 48 47 48 48 46 45 43 43 42 41 41 44 46 46 49 41 25 29 29 29 30 28 21 16 17 21 27 34 34
12 7 26 54 44 41 31 23 26 28 51 52 46 41 45 45 49 49 49 54 52 51 52 52 49 47 45 44 42 45 45 47 48 44 38 35 26 31 30 29 31 27 20 16 21 27 29 34 37
8 28 36 33 35 32 17 20 19 42 54 57 52 56 53 52 56 54 60 59 59 55 56 54 52 51 49 46 43 43 41 37 37 37 35 30 31 29 26 25 27 27 21 19 26 30 35 37 46
21 14 9 13 14 11 18 30 25 57 46 52 58 64 65 71 67 74 69 67 61 58 59 58 54 53 51 48 45 45 43 46 42 40 42 42 41 37 30 27 32 27 24 25 31 34 39 39 43
6 6 25 15 17 11 29 51 8 55 66 68 76 71 66 71 75 77 74 69 64 62 61 55 55 56 53 53 52 52 49 47 45 43 39 34 33 25 29 34 34 28 25 29 37 38 43 45 51
9 18 10 9 22 9 13 52 5 19 47 53 66 67 68 72 67 68 67 65 63 60 58 58 59 57 56 58 56 54 49 49 49 46 42 36 31 21 34 36 32 27 27 33 40 43 45 49 49
15 10 10 24 10 8 13 46 13 10 22 40 48 54 56 57 64 53 52 49 50 53 56 58 60 60 60 62 60 59 56 56 52 48 42 36 35 39 37 33 34 32 32 38 47 48 51 49 51
3 21 20 4 11 12 27 39 30 22 24 30 52 57 65 73 71 65 58 51 46 49 56 63 66 68 68 71 72 69 66 60 53 48 39 42 42 36 32 33 39 36 36 39 53 54 53 55 52
12 25 31 7 7 12 5 32 20 16 27 41 53 69 81 80 79 77 66 54 54 56 61 66 70 70 73 75 73 70 66 63 53 45 42 40 37 37 41 37 43 40 39 46 54 61 62 61 58
33 35 42 24 9 5 5 24 14 16 27 46 67 82 74 80 76 66 62 58 54 59 65 69 69 72 76 76 75 73 67 63 59 56 56 53 55 51 40 37 43 44 47 50 53 60 64 64 63
33 21 36 14 7 19 5 20 31 9 21 15 46 52 74 63 49 45 41 42 46 51 52 57 66 70 75 77 77 75 72 70 68 56 56 56 57 47 45 46 49 52 53 53 53 57 62 65 67
18 8 18 26 28 13 13 6 34 7 13 24 29 40 33 23 20 21 24 25 29 41 48 46 50 60 70 72 72 69 69 67 62 53 51 52 51 46 51 53 55 57 57 54 56 59 63 65 61
13 7 6 6 7 10 29 25 52 17 14 14 4 16 18 14 14 12 11 14 18 27 36 40 42 45 54 62 64 64 63 65 63 56 49 48 52 52 56 52 54 58 58 58 55 56 58 61 59
3 10 5 3 5 18 12 18 43 7 8 12 12 16 19 25 24 21 19 18 18 21 23 26 30 36 42 51 57 58 59 61 60 54 48 45 50 55 54 57 60 60 60 57 57 57 56 57 57
17 21 10 13 13 16 4 17 18 12 7 10 20 31 29 31 30 31 28 25 23 20 19 20 23 29 35 43 48 52 56 58 57 53 49 44 44 48 53 56 57 56 56 56 57 57 56 55 55
9 18 13 7 3 2 9 14 17 15 8 8 18 33 29 29 28 28 27 25 22 19 16 14 16 22 27 31 38 45 49 54 52 51 50 46 44 43 47 51 53 55 56 57 58 59 58 55 54
8 4 8 7 12 11 10 11 21 2 12 12 13 17 21 20 23 21 18 15 15 13 10 10 13 16 20 27 34 38 43 46 49 52 52 47 43 44 45 48 51 53 55 57 58 57 55 54 53
6 6 3 0 5 8 3 12 10 12 10 26 21 32 24 21 18 16 13 11 10 7 6 7 12 18 23 27 30 34 37 41 46 48 49 47 44 43 45 47 49 52 54 57 58 56 54 53 52
1 14 19 8 9 4 2 22 0 14 11 18 18 22 20 17 14 9 6 4 3 2 2 7 11 15 21 26 29 31 34 38 42 44 45 45 43 42 42 44 47 49 51 53 55 54 53 52 52
Wind_Direction_500mb
230 225 201 176 130 71 238 232 212 218 226 192 146 166 205 202 178 210 219 184 182 175 177 174 182 173 167 171 175 184 181 186 194 196 189 200 201 190 200 214 223 221 220 227 261 284 289 277 269
226 208 191 172 152 211 243 228 217 223 194 166 178 187 225 248 234 260 220 188 181 180 181 186 187 189 186 185 188 189 192 201 212 217 222 225 222 222 235 246 249 252 256 263 271 276 276 278 282
216 195 187 176 187 223 225 207 225 248 223 200 209 219 207 223 216 222 207 191 186 186 188 186 190 196 198 198 202 202 203 211 223 230 239 243 243 243 249 258 255 254 258 262 264 266 273 282 286
201 194 235 196 228 247 214 208 204 229 238 205 215 247 235 218 201 204 194 187 186 190 191 192 197 201 206 210 209 210 212 217 227 238 250 255 255 252 256 260 257 254 255 259 261 271 279 286 300
193 198 224 229 248 248 241 246 231 232 228 209 192 248 244 225 217 205 189 186 190 196 199 198 199 208 212 216 221 218 219 220 228 240 253 260 260 257 256 254 253 254 253 249 261 272 282 293 303
190 202 227 229 236 231 237 238 236 220 236 213 196 195 243 222 208 202 191 183 186 201 208 208 209 214 217 220 226 230 228 227 232 240 251 255 257 258 256 255 251 245 244 250 263 278 290 300 279
199 192 234 219 243 240 233 238 205 221 218 219 204 184 244 233 207 204 194 188 193 198 211 217 218 218 223 229 232 232 234 234 239 246 251 254 253 254 251 245 233 221 227 250 272 278 288 177 172
213 198 222 221 238 260 210 198 234 214 225 231 213 219 237 237 215 206 198 198 203 204 207 214 218 222 226 229 235 239 245 239 245 248 249 249 249 250 244 231 218 213 229 251 263 254 234 182 171
201 231 231 230 195 236 201 195 224 218 214 214 209 222 219 226 207 207 208 212 213 212 213 216 217 220 221 228 237 242 251 241 247 250 252 250 243 238 231 224 222 224 221 224 251 258 261 161 153
189 226 230 200 197 217 212 201 215 194 211 231 227 232 236 244 224 218 221 230 227 224 219 215 217 219 221 227 237 245 252 237 238 243 249 244 238 234 229 226 234 215 196 233 275 197 156 150 158
210 237 214 214 217 230 219 214 211 200 242 214 227 240 242 240 230 226 233 244 248 235 226 224 227 224 226 230 234 240 241 234 232 234 236 232 242 235 225 218 218 217 229 242 243 167 158 157 174
235 235 225 231 226 216 222 206 206 205 237 257 256 252 247 240 235 233 242 249 242 240 234 232 233 232 235 232 233 238 236 233 233 239 242 238 230 234 222 215 216 219 222 222 190 169 158 163 177
238 209 231 241 242 235 236 221 228 221 249 255 255 251 245 239 241 247 252 248 246 245 239 237 238 238 238 236 236 236 235 236 239 243 237 232 226 231 224 214 213 218 215 207 182 174 166 173 181
237 221 237 241 239 230 212 253 211 243 249 250 246 248 247 247 253 255 251 252 247 248 244 241 240 239 239 240 237 235 233 238 241 243 240 216 212 226 226 222 219 217 213 201 185 176 170 177 176
249 255 273 222 214 232 204 270 226 242 242 239 240 249 253 253 254 255 259 257 253 250 246 242 240 237 237 238 236 233 234 235 236 240 237 220 212 216 219 231 225 218 213 202 187 184 182 188 191
237 192 247 216 159 220 167 257 301 239 234 235 246 249 249 251 257 258 257 256 252 247 244 242 238 236 235 234 234 233 238 243 246 243 234 222 221 232 228 227 224 218 212 201 190 189 189 188 178
234 249 220 279 201 147 192 257 185 215 222 235 244 250 252 255 254 255 254 251 246 242 240 237 236 237 235 231 231 233 238 239 239 236 232 222 222 230 238 229 224 220 213 203 192 190 197 195 198
199 224 233 238 195 186 191 255 247 240 227 244 256 253 253 254 252 253 252 248 244 239 238 236 236 237 233 230 229 231 235 238 239 236 232 223 212 214 226 229 228 219 213 205 191 196 195 197 196
193 224 240 227 202 164 219 242 256 254 257 255 258 256 259 263 262 262 258 253 246 239 237 236 233 232 229 226 225 226 233 236 240 240 234 222 213 217 220 233 231 223 216 209 197 196 200 196 202
247 245 251 282 174 186 232 258 260 241 255 237 243 255 261 261 261 265 266 258 250 248 243 238 233 231 230 229 230 230 235 235 237 230 221 220 225 228 218 230 236 228 219 210 205 203 202 205 207
229 233 250 246 171 239 328 275 246 242 250 252 250 252 255 258 264 268 267 262 251 244 240 237 235 231 228 228 227 228 230 232 229 224 226 224 217 229 237 236 232 232 222 219 212 208 208 209 209
237 225 251 232 194 246 188 277 272 222 241 232 251 248 256 264 261 259 254 249 244 237 232 231 232 231 228 228 228 231 233 231 231 234 238 231 229 222 222 219 229 231 225 220 218 215 216 214 217
240 197 221 225 224 238 226 254 269 149 256 254 255 251 246 240 240 237 245 242 236 221 218 222 226 227 227 227 230 233 235 235 236 243 244 239 230 225 213 223 223 226 222 220 219 218 218 221 223
135 119 95 91 143 220 227 201 270 217 202 246 186 177 210 217 213 200 191 183 186 191 200 209 217 222 225 226 230 234 235 234 238 243 239 236 228 223 218 226 228 225 224 220 219 220 222 225 225
156 148 194 209 182 235 177 177 237 219 215 209 202 154 141 128 127 128 127 134 147 158 175 192 205 214 217 222 227 230 234 236 241 245 239 237 230 227 228 227 227 225 223 220 219 220 220 222 224
177 222 173 213 214 224 157 225 239 233 258 211 156 145 131 119 113 109 108 113 118 131 153 172 193 205 213 219 224 228 232 235 239 239 238 239 240 239 235 232 229 228 225 223 222 221 222 222 224
173 216 214 99 53 240 202 275 290 203 213 158 157 158 135 120 112 103 100 101 106 116 128 151 179 196 210 219 225 228 232 235 237 234 237 238 241 241 238 235 233 229 226 225 224 224 223 223 225
133 313 164 168 194 216 239 262 238 284 188 166 175 170 156 122 111 102 96 97 103 110 133 168 198 205 214 221 226 230 232 234 234 234 237 239 240 237 234 232 231 229 228 226 223 225 227 225 226
115 224 343 341 199 194 262 254 230 272 206 185 170 166 155 131 113 107 104 102 107 127 156 200 220 226 225 226 225 228 230 233 234 236 238 239 240 238 234 232 231 228 226 224 223 223 224 225 226
26 204 191 222 208 235 296 257 59 277 233 147 158 143 129 123 114 112 117 112 115 133 219 245 244 239 231 227 227 228 226 227 231 233 235 236 237 236 234 232 230 227 225 224 224 222 222 223 226
Wind_Speed_850mb
21 17 16 13 3 2 8 12 4 5 5 7 11 7 9 6 9 7 5 20 35 51 52 48 45 41 39 36 35 33 30 25 21 17 17 20 19 16 15 15 19 21 23 24 24 21 19 18 16
19 19 17 7 6 6 11 7 11 17 8 9 11 9 5 11 19 12 10 22 37 53 55 53 50 48 45 42 40 35 32 27 24 21 20 22 25 24 20 19 23 30 30 31 29 26 24 22 18
19 23 11 7 7 21 9 10 21 10 15 15 9 12 8 9 16 10 14 23 40 53 58 52 50 49 47 41 42 36 33 29 27 25 24 28 31 30 28 28 28 30 31 29 27 26 23 18 18
17 15 7 5 21 12 11 6 9 3 6 17 11 8 12 19 8 12 15 22 36 51 54 52 52 49 48 45 40 40 36 33 29 25 25 26 28 34 34 30 27 25 24 24 23 24 19 17 17
25 8 7 8 22 8 8 20 16 7 6 10 17 8 11 15 20 12 13 20 31 46 51 52 51 53 52 47 47 42 40 36 31 27 25 26 26 26 27 25 24 22 22 21 21 20 17 20 18
16 7 6 22 25 8 10 37 20 11 17 10 14 8 11 12 21 19 21 27 33 40 47 51 52 53 55 54 55 50 45 38 34 31 28 27 26 25 24 23 20 19 17 21 18 20 20 15 8
11 6 15 7 8 8 14 32 17 22 19 22 15 11 11 20 26 26 25 28 30 37 40 42 47 55 53 56 56 57 55 44 38 33 30 27 26 25 23 20 17 16 21 19 20 22 11 5 9
17 6 9 11 22 24 11 14 13 39 28 20 25 11 10 19 30 31 31 29 32 38 41 44 45 47 50 52 54 59 60 52 42 36 31 27 27 25 24 22 21 21 21 18 21 12 10 10 20
24 9 19 25 20 13 5 7 13 12 19 22 21 22 16 14 28 37 36 34 38 42 43 43 42 42 44 47 49 51 55 45 43 37 32 27 25 24 24 25 25 25 17 17 19 15 10 24 24
14 17 24 12 17 11 10 20 13 9 16 16 24 36 39 33 30 40 38 38 41 44 47 46 42 43 42 42 46 47 44 40 39 37 34 30 27 27 25 26 24 21 24 21 15 8 22 28 30
14 33 14 13 32 40 15 12 16 15 13 22 36 45 44 42 40 45 42 42 42 43 45 46 43 43 42 42 44 43 41 41 41 41 41 28 22 26 27 29 28 28 24 16 6 18 23 31 34
13 20 24 23 38 18 10 10 13 34 40 39 29 36 37 50 50 48 48 47 48 47 48 48 46 45 43 43 42 41 41 44 46 46 49 41 25 29 29 29 30 28 21 16 17 21 27 34 34
12 7 26 54 44 41 31 23 26 28 51 52 46 41 45 45 49 49 49 54 52 51 52 52 49 47 45 44 42 45 45 47 48 44 38 35 26 31 30 29 31 27 20 16 21 27 29 34 37
8 28 36 33 35 32 17 20 19 42 54 57 52 56 53 52 56 54 60 59 59 55 56 54 52 51 49 46 43 43 41 37 37 37 35 30 31 29 26 25 27 27 21 19 26 30 35 37 46
21 14 9 13 14 11 18 30 25 57 46 52 58 64 65 71 67 74 69 67 61 58 59 58 54 53 51 48 45 45 43 46 42 40 42 42 41 37 30 27 32 27 24 25 31 34 39 39 43
6 6 25 15 17 11 29 51 8 55 66 68 76 71 66 71 75 77 74 69 64 62 61 55 55 56 53 53 52 52 49 47 45 43 39 34 33 25 29 34 34 28 25 29 37 38 43 45 51
9 18 10 9 22 9 13 52 5 19 47 53 66 67 68 72 67 68 67 65 63 60 58 58 59 57 56 58 56 54 49 49 49 46 42 36 31 21 34 36 32 27 27 33 40 43 45 49 49
15 10 10 24 10 8 13 46 13 10 22 40 48 54 56 57 64 53 52 49 50 53 56 58 60 60 60 62 60 59 56 56 52 48 42 36 35 39 37 33 34 32 32 38 47 48 51 49 51
3 21 20 4 11 12 27 39 30 22 24 30 52 57 65 73 71 65 58 51 46 49 56 63 66 68 68 71 72 69 66 60 53 48 39 42 42 36 32 33 39 36 36 39 53 54 53 55 52
12 25 31 7 7 12 5 32 20 16 27 41 53 69 81 80 79 77 66 54 54 56 61 66 70 70 73 75 73 70 66 63 53 45 42 40 37 37 41 37 43 40 39 46 54 61 62 61 58
33 35 42 24 9 5 5 24 14 16 27 46 67 82 74 80 76 66 62 58 54 59 65 69 69 72 76 76 75 73 67 63 59 56 56 53 55 51 40 37 43 44 47 50 53 60 64 64 63
33 21 36 14 7 19 5 20 31 9 21 15 46 52 74 63 49 45 41 42 46 51 52 57 66 70 75 77 77 75 72 70 68 56 56 56 57 47 45 46 49 52 53 53 53 57 62 65 67
18 8 18 26 28 13 13 6 34 7 13 24 29 40 33 23 20 21 24 25 29 41 48 46 50 60 70 72 72 69 69 67 62 53 51 52 51 46 51 53 55 57 57 54 56 59 63 65 61
13 7 6 6 7 10 29 25 52 17 14 14 4 16 18 14 14 12 11 14 18 27 36 40 42 45 54 62 64 64 63 65 63 56 49 48 52 52 56 52 54 58 58 58 55 56 58 61 59
3 10 5 3 5 18 12 18 43 7 8 12 12 16 19 25 24 21 19 18 18 21 23 26 30 36 42 51 57 58 59 61 60 54 48 45 50 55 54 57 60 60 60 57 57 57 56 57 57
17 21 10 13 13 16 4 17 18 12 7 10 20 31 29 31 30 31 28 25 23 20 19 20 23 29 35 43 48 52 56 58 57 53 49 44 44 48 53 56 57 56 56 56 57 57 56 55 55
9 18 13 7 3 2 9 14 17 15 8 8 18 33 29 29 28 28 27 25 22 19 16 14 16 22 27 31 38 45 49 54 52 51 50 46 44 43 47 51 53 55 56 57 58 59 58 55 54
8 4 8 7 12 11 10 11 21 2 12 12 13 17 21 20 23 21 18 15 15 13 10 10 13 16 20 27 34 38 43 46 49 52 52 47 43 44 45 48 51 53 55 57 58 57 55 54 53
6 6 3 0 5 8 3 12 10 12 10 26 21 32 24 21 18 16 13 11 10 7 6 7 12 18 23 27 30 34 37 41 46 48 49 47 44 43 45 47 49 52 54 57 58 56 54 53 52
1 14 19 8 9 4 2 22 0 14 11 18 18 22 20 17 14 9 6 4 3 2 2 7 11 15 21 26 29 31 34 38 42 44 45 45 43 42 42 44 47 49 51 53 55 54 53 52 52
Wind_Direction_850mb
230 225 201 176 130 71 238 232 212 218 226 192 146 166 205 202 178 210 219 184 182 175 177 174 182 173 167 171 175 184 181 186 194 196 189 200 201 190 200 214 223 221 220 227 261 284 289 277 269
226 208 191 172 152 211 243 228 217 223 194 166 178 187 225 248 234 260 220 188 181 180 181 186 187 189 186 185 188 189 192 201 212 217 222 225 222 222 235 246 249 252 256 263 271 276 276 278 282
216 195 187 176 187 223 225 207 225 248 223 200 209 219 207 223 216 222 207 191 186 186 188 186 190 196 198 198 202 202 203 211 223 230 239 243 243 243 249 258 255 254 258 262 264 266 273 282 286
201 194 235 196 228 247 214 208 204 229 238 205 215 247 235 218 201 204 194 187 186 190 191 192 197 201 206 210 209 210 212 217 227 238 250 255 255 252 256 260 257 254 255 259 261 271 279 286 300
193 198 224 229 248 248 241 246 231 232 228 209 192 248 244 225 217 205 189 186 190 196 199 198 199 208 212 216 221 218 219 220 228 240 253 260 260 257 256 254 253 254 253 249 261 272 282 293 303
190 202 227 229 236 231 237 238 236 220 236 213 196 195 243 222 208 202 191 183 186 201 208 208 209 214 217 220 226 230 228 227 232 240 251 255 257 258 256 255 251 245 244 250 263 278 290 300 279
199 192 234 219 243 240 233 238 205 221 218 219 204 184 244 233 207 204 194 188 193 198 211 217 218 218 223 229 232 232 234 234 239 246 251 254 253 254 251 245 233 221 227 250 272 278 288 177 172
213 198 222 221 238 260 210 198 234 214 225 231 213 219 237 237 215 206 198 198 203 204 207 214 218 222 226 229 235 239 245 239 245 248 249 249 249 250 244 231 218 213 229 251 263 254 234 182 171
201 231 231 230 195 236 201 195 224 218 214 214 209 222 219 226 207 207 208 212 213 212 213 216 217 220 221 228 237 242 251 241 247 250 252 250 243 238 231 224 222 224 221 224 251 258 261 161 153
189 226 230 200 197 217 212 201 215 194 211 231 227 232 236 244 224 218 221 230 227 224 219 215 217 219 221 227 237 245 252 237 238 243 249 244 238 234 229 226 234 215 196 233 275 197 156 150 158
210 237 214 214 217 230 219 214 211 200 242 214 227 240 242 240 230 226 233 244 248 235 226 224 227 224 226 230 234 240 241 234 232 234 236 232 242 235 225 218 218 217 229 242 243 167 158 157 174
235 235 225 231 226 216 222 206 206 205 237 257 256 252 247 240 235 233 242 249 242 240 234 232 233 232 235 232 233 238 236 233 233 239 242 238 230 234 222 215 216 219 222 222 190 169 158 163 177
238 209 231 241 242 235 236 221 228 221 249 255 255 251 245 239 241 247 252 248 246 245 239 237 238 238 238 236 236 236 235 236 239 243 237 232 226 231 224 214 213 218 215 207 182 174 166 173 181
237 221 237 241 239 230 212 253 211 243 249 250 246 248 247 247 253 255 251 252 247 248 244 241 240 239 239 240 237 235 233 238 241 243 240 216 212 226 226 222 219 217 213 201 185 176 170 177 176
249 255 273 222 214 232 204 270 226 242 242 239 240 249 253 253 254 255 259 257 253 250 246 242 240 237 237 238 236 233 234 235 236 240 237 220 212 216 219 231 225 218 213 202 187 184 182 188 191
237 192 247 216 159 220 167 257 301 239 234 235 246 249 249 251 257 258 257 256 252 247 244 242 238 236 235 234 234 233 238 243 246 243 234 222 221 232 228 227 224 218 212 201 190 189 189 188 178
234 249 220 279 201 147 192 257 185 215 222 235 244 250 252 255 254 255 254 251 246 242 240 237 236 237 235 231 231 233 238 239 239 236 232 222 222 230 238 229 224 220 213 203 192 190 197 195 198
199 224 233 238 195 186 191 255 247 240 227 244 256 253 253 254 252 253 252 248 244 239 238 236 236 237 233 230 229 231 235 238 239 236 232 223 212 214 226 229 228 219 213 205 191 196 195 197 196
193 224 240 227 202 164 219 242 256 254 257 255 258 256 259 263 262 262 258 253 246 239 237 236 233 232 229 226 225 226 233 236 240 240 234 222 213 217 220 233 231 223 216 209 197 196 200 196 202
247 245 251 282 174 186 232 258 260 241 255 237 243 255 261 261 261 265 266 258 250 248 243 238 233 231 230 229 230 230 235 235 237 230 221 220 225 228 218 230 236 228 219 210 205 203 202 205 207
229 233 250 246 171 239 328 275 246 242 250 252 250 252 255 258 264 268 267 262 251 244 240 237 235 231 228 228 227 228 230 232 229 224 226 224 217 229 237 236 232 232 222 219 212 208 208 209 209
237 225 251 232 194 246 188 277 272 222 241 232 251 248 256 264 261 259 254 249 244 237 232 231 232 231 228 228 228 231 233 231 231 234 238 231 229 222 222 219 229 231 225 220 218 215 216 214 217
240 197 221 225 224 238 226 254 269 149 256 254 255 251 246 240 240 237 245 242 236 221 218 222 226 227 227 227 230 233 235 235 236 243 244 239 230 225 213 223 223 226 222 220 219 218 218 221 223
135 119 95 91 143 220 227 201 270 217 202 246 186 177 210 217 213 200 191 183 186 191 200 209 217 222 225 226 230 234 235 234 238 243 239 236 228 223 218 226 228 225 224 220 219 220 222 225 225
156 148 194 209 182 235 177 177 237 219 215 209 202 154 141 128 127 128 127 134 147 158 175 192 205 214 217 222 227 230 234 236 241 245 239 237 230 227 228 227 227 225 223 220 219 220 220 222 224
177 222 173 213 214 224 157 225 239 233 258 211 156 145 131 119 113 109 108 113 118 131 153 172 193 205 213 219 224 228 232 235 239 239 238 239 240 239 235 232 229 228 225 223 222 221 222 222 224
173 216 214 99 53 240 202 275 290 203 213 158 157 158 135 120 112 103 100 101 106 116 128 151 179 196 210 219 225 228 232 235 237 234 237 238 241 241 238 235 233 229 226 225 224 224 223 223 225
133 313 164 168 194 216 239 262 238 284 188 166 175 170 156 122 111 102 96 97 103 110 133 168 198 205 214 221 226 230 232 234 234 234 237 239 240 237 234 232 231 229 228 226 223 225 227 225 226
115 224 343 341 199 194 262 254 230 272 206 185 170 166 155 131 113 107 104 102 107 127 156 200 220 226 225 226 225 228 230 233 234 236 238 239 240 238 234 232 231 228 226 224 223 223 224 225 226
26 204 191 222 208 235 296 257 59 277 233 147 158 143 129 123 114 112 117 112 115 133 219 245 244 239 231 227 227 228 226 227 231 233 235 236 237 236 234 232 230 227 225 224 224 222 222 223 226